Flag for Germany Weather past 2 weeks in Würzburg, Bavaria, Germany

Now
29 °F

Passing clouds.


Feels Like: 29 °F
Forecast: 30 / 55 °F
Wind: 2 mph from North

Location: Wuerzburg

Current Time: Mar 7, 2015 at 6:23:33 AM

Latest Report: Mar 7, 2015 at 6:00 AM


Visibility: 5 mi

Pressure: 30.60 "Hg

Humidity: 98%

Dew point: 29 °F

Location of WürzburgLocation

Historic Weather in Würzburg — Graph

°F

Würzburg temperature yesterday

Maximum temperature yesterday: 44 °F (at 1:00 PM)
Minimum temperature yesterday: 31 °F (at 7:00 AM)
Average temperature yesterday: 38 °F

Past Weeks' High & Low Weather Summary

 TemperatureHumidityPressure
High53 °F (Feb 20, 4:00 PM)100% (Feb 23, 12:00 PM)30.68 "Hg (Feb 23, 12:00 PM)
Low26 °F (Feb 20, 8:00 AM)44% (Feb 26, 4:00 PM)29.50 "Hg (Feb 21, 8:00 AM)
Average38 °F80%30.02 "Hg
* Reported Feb 20 5:00 AM — Mar 7 5:00 AM, Würzburg, Weather by CustomWeather, © 2015

Note: Actual official high and low records may vary slightly from our data, if they occured in-between our weather recording intervals... More about our weather records

Advertising

Würzburg weather history for previous 24 hours

 ConditionsComfort  
Time TempWeatherWind HumidityBarometerVisibility
5:00 AM
Sat, Mar 7
30 °FClear.No wind98%30.59 "Hg6 mi
4:00 AM30 °FPassing clouds.1 mph96%30.59 "Hg6 mi
3:00 AM32 °FClear.1 mph93%30.61 "Hg7 mi
2:00 AM32 °FClear.2 mph92%30.62 "Hg8 mi
1:00 AM34 °FClear.2 mph91%30.61 "Hg11 mi
12:00 AM36 °FClear.2 mph89%30.61 "Hg12 mi
11:00 PM
Fri, Mar 6
38 °FPassing clouds.2 mph84%30.61 "Hg14 mi
10:00 PM40 °FOvercast.1 mph74%30.62 "Hg16 mi
9:00 PM41 °FOvercast.N/A71%30.62 "Hg16 mi
8:00 PM42 °FOvercast.1 mph69%30.61 "Hg16 mi
7:00 PM43 °FOvercast.No wind62%30.61 "Hg19 mi
6:00 PM43 °FOvercast.2 mph63%30.59 "Hg19 mi
5:00 PM44 °FOvercast.2 mph60%30.60 "Hg19 mi
4:00 PM44 °FOvercast.3 mph61%30.60 "Hg19 mi
3:00 PM44 °FOvercast.3 mph60%30.62 "Hg19 mi
2:00 PM44 °FOvercast.3 mph57%30.64 "Hg22 mi
1:00 PM44 °FOvercast.5 mph66%30.64 "Hg19 mi
12:00 PM44 °FOvercast.1 mph69%30.66 "Hg14 mi
11:00 AM40 °FOvercast.2 mph77%30.66 "Hg22 mi
10:00 AM37 °FPassing clouds.2 mph83%30.67 "Hg25 mi
9:00 AM33 °FPartly sunny.1 mph91%30.68 "Hg12 mi
8:00 AM31 °FPartly sunny.1 mph95%30.68 "Hg11 mi
7:00 AM31 °FPartly sunny.1 mph94%30.68 "Hg14 mi
6:00 AM32 °FPassing clouds.1 mph90%30.67 "Hg16 mi
Weather by CustomWeather, © 2015

See weather overviewHow to use our weather pages